Погода в Валь-д'Оре

Канада     48°06′05″N   77°47′19″W
темп.,
°C
ветер,
м/с
пор.,
м/с
влажн.,
%
обл.,
%
осадки,
мм/ч
давл.,
гПа
погр.,
м
16 января, вс
вс1601:00−26ююз312915 0.0 1028215
04:00−23ююз4148447 0.0 1026318
07:00−22ююз41587100 0.0 1024357
10:00−17ююз51490100 0.0 1022420
13:00−13ююз51481100 0.0 1018528
16:00−12ю51481100 0.0 1015590
19:00−12ю41384100 0.0 1015440
22:00−13ю41287100 0.0 1015361
17 января, пн
пн1701:00−18ююв2695100 0.0 101291
04:00−21вюв119899 0.0 10109
07:00−16всв2393100 0.0 100672
10:00−12св2590100 0.1 1003160
13:00−10с4992100 0.4 998390
16:00−10ссз61389100 0.4 995614
19:00−13ссз61593100 1.0 998696
22:00−19ссз61690100 0.5 1002633
18 января, вт
вт1801:00−23сз61590100 0.5 1005588
04:00−26сз51391100 0.0 1010607
07:00−28сз4129287 0.0 1014507
10:00−27сз499098 0.0 1018460
13:00−23сз4686100 0.0 1018602
16:00−22зсз259097 0.0 1019232
19:00−30зюз00100100 0.0 10229
22:00−26ююв1298100 0.0 102145
19 января, ср
ср1901:00−22юв2695100 0.0 1019182
04:00−20вюв41093100 0.1 1015295
07:00−19вюв51397100 1.3 1011403
10:00−17вюв51396100 2.3 1007523
13:00−15юв4693100 4.6 1002482
16:00−14ссз2294100 1.0 1003367
19:00−16ссз5994100 1.4 1007583
22:00−18сз51193100 0.2 1011832
20 января, чт
чт2001:00−22сз51193100 0.3 1016634
04:00−24сз41192100 0.1 1021567
07:00−27зсз41094100 0.1 1024396
10:00−27сз4990100 0.0 1027464
13:00−24зсз4687100 0.0 1028706
16:00−23зсз3791100 0.0 1029699
19:00−31зсз1110076 0.1 10339
22:00−34зюз11100100 0.0 10349